Location: Poughquag
(41.6090°N, 73.6820°W)
Time: 16:33:11
(UTC-04:00)

STARLINK-1390 - Pass Details

Date: 29 May 2020
Orbit: 548 x 551 km, 53.0° (Epoch: 30 October)

Event Time Altitude Azimuth Distance (km) Brightness Sun altitude
Exits shadow 02:03:35 69° 9° (N) 597 3.8 -24.6°
Drops below altitude 10° 02:07:27 10° 50° (NE) 1,847 7.1 -24.3°
Enters shadow 03:06:30 -65° 241° (WSW) 12,174 10.4 -19.5°
